Aérodrome :
LOGIN :

S'inscrire | Disclaimer

   EN    FR    IT 

 










Légende :    VFR   VFR Marginal   IFR   IFR Intensif   IFR Très Intensif
Visi : 
Plafond : 
>= 8 km
>= 3000ft
5 à 8 km
1000 à 3000 ft
1500m à 5 km
500 à 1000 ft
800 à 1500m
200 à 500 ft
< 800m
< 200 ft
Symboles :   Orages  Brouillard  Fortes neiges  Fortes précipitations  Vent > 20 kt
SIGMETs :   Divers  Orages  Givrage  Turbulence  Onde Orograph.  Cendres Volcan.







- Altitude de l'aérodrome : 348 ft
- Code IATA : LDV
- Voir les cartes d'approche


LFRJ - Landivisiau

DERNIER METAR :
  • 230000Z AUTO 22008KT 9999 BKN043 OVC096 12/11 Q1023

METARs EXPIRÉS :
  • 222330Z AUTO 22010KT 9999 SCT044 BKN100 12/11 Q1023
  • 222300Z AUTO 22010KT 9999 SCT044 OVC100 12/10 Q1023
  • 222230Z AUTO 22009KT 9999 BKN040 BKN046 BKN098 12/10 Q1023
  • 222200Z AUTO 22009KT 9999 FEW020 SCT045 BKN100 12/10 Q1023
  • 222130Z AUTO 22008KT 9999 BKN046 BKN110 BKN130 12/10 Q1023

Prévision TAF périmée.
Pas de NOTAMs connus pour ce terrain.



MET'MAP, la Météo Aéronautique d'un coup d'oeil ! - Copyright ORBIFLY Décembre 2007 - Disclaimer

ORBIFLY MET'MAP TEAM :

Programmation & Développement : Alexandra Zaïnal
Conception & Développement : Baudouin d'Aumeries
Co-Programmation & Développement : Marc-Olivier Méhu
Soutien technique & logistique : Manuel Goepfert

Contact : metmap@orbifly.com




SOURCES & CREDITS :

   NOAA